Weather Roundup
Issued by NWS Springfield, MO

Home | Current Version | Previous Version | Text Only | Print | Product List | Glossary On
Versions: 1 2 3 4 5 6 7 8 9 10 11 12 13 14 15 16 17 18 19 20 21 22 23 24 25 26 27 28 29 30 31 32 33 34 35 36 37 38 39 40 41 42 43 44 45 46 47 48 49 50
000
NZUS99 KSGF 231357
HRRSGF

HOURLY WEATHER
NATIONAL WEATHER SERVICE SPRINGFIELD MO
800 AM CST TUE JAN 23 2018

......SGF CWA......

CITY           SKY/WX    TMP DP  RH WIND       PRES   REMARKS
SPRINGFIELD    CLOUDY    31  25  78 NW13G24   30.07R WCI  21
JOPLIN         CLOUDY    31  27  85 NW9       30.14R WCI  23
ROLLA          CLOUDY    32  26  78 NW16G29   29.98R WCI  21
BRANSON        CLOUDY    32  25  74 NW13G33   30.08R WCI  22

......SURROUNDING SGF CWA......

CITY           SKY/WX    TMP DP  RH WIND       PRES   REMARKS
CHANUTE        NOT AVBL
PARSONS        CLOUDY    28  24  85 W8        30.19R WCI  20
COFFEYVILLE    CLEAR     27  22  81 NW9       30.19R WCI  18
EMPORIA        CLOUDY    25  21  85 NW10      30.15R WCI  15
HARRISON AR    CLOUDY    32  26  78 W14G22    30.07R WCI  22

......KANSAS AND MISSOURI......

CITY           SKY/WX    TMP DP  RH WIND       PRES   REMARKS
KANSAS CTY INT CLOUDY    28  24  85 NW15G21   30.11R WCI  16
SEDALIA        CLOUDY    33  29  85 NW18      30.05R WCI  22
ST JOSEPH      CLOUDY    29  26  89 NW14      30.12R WCI  18
ST LOUIS       CLOUDY    35  30  82 W20       29.92R WCI  24
WICHITA        CLEAR     22  18  85 NW7       30.18R WCI  13
TOPEKA         CLOUDY    26  22  84 W12       30.16R WCI  16
OLATHE         CLOUDY    27  24  89 NW13      30.11R WCI  16

......TENNESSEE......

CITY           SKY/WX    TMP DP  RH WIND       PRES   REMARKS
MEMPHIS        NOT AVBL
NASHVILLE      FAIR      45  28  51 W9G20     29.95R

......ARKANSAS.......

CITY           SKY/WX    TMP DP  RH WIND       PRES   REMARKS
FAYETTEVILLE   CLEAR     28  25  88 NW3       30.13R
FT SMITH       CLEAR     33  25  72 SW3       30.17R
LITTLE ROCK    CLEAR     39  28  64 W10       30.10R WCI  32

......OKLAHOMA.......

CITY           SKY/WX    TMP DP  RH WIND       PRES   REMARKS
TULSA          CLEAR     29  22  75 W8        30.20R WCI  21
PONCA CITY     CLEAR     21  14  74 NW5       30.22R WCI  15
MCALESTER      CLEAR     30  21  69 NW5       30.21R WCI  25
OKLAHOMA CITY  CLEAR     29  18  63 N10       30.22R WCI  20

......IOWA............

CITY           SKY/WX    TMP DP  RH WIND       PRES   REMARKS
DES MOINES     NOT AVBL
QUAD CITIES    CLOUDY    32  26  78 NW14G22   29.82R WCI  22

......ILLINOIS........

CITY           SKY/WX    TMP DP  RH WIND       PRES   REMARKS
QUINCY         NOT AVBL
CHICAGO        CLOUDY    31  27  85 NW14      29.69R WCI  21



USA.gov is the U.S. government's official web portal to all federal, state and local government web resources and services.